Location: Allos
(44.2333°N, 6.6333°E)
Time: 17:39:51
(UTC+00:00)

SL-24 R/B - Pass Details

Date: 01 December 2020
Orbit: 505 x 1003 km, 97.4° (Epoch: 22 January)

Event Time Altitude Azimuth Distance (km) Brightness Sun altitude
Exits shadow 17:49:36 39° 19° (NNE) 795 4.3 -19.8°
Maximum altitude 17:50:55 82° 103° (ESE) 525 3.5 -20.0°
Drops below altitude 10° 17:54:33 10° 191° (S) 1,712 6.6 -20.6°
Sets 17:56:35 0° 192° (SSW) 2,596 7.6 -21.0°
